User: anonymous   Login
Location: Asheville, NC
(35.6000°N, 82.5500°W)
Time: 21:11:35
(UTC-05:00)
Language:

CUTE-I - Orbit

View from above orbital plane
View from above orbital plane
View from above satellite
View from above satellite

Ground track
Ground track

The orbit data is extracted from the following two-line orbital elements,

1 27844U 03031E   18020.83952481 +.00000044 +00000-0 +39700-4 0  9994
2 27844 098.6886 031.6586 0010809 079.4909 280.7486 14.22089742755211
Epoch (UTC): 20 January 2018 20:08:54
Eccentricity: 0.0010809
inclination: 98.6886°
perigee height: 810 km
apogee height: 826 km
right ascension of ascending node: 31.6586°
argument of perigee: 79.4909°
revolutions per day: 14.22089742
mean anomaly at epoch: 280.7486°
orbit number at epoch: 75521

The dashed part of the orbit path shows where the satellite is in the earth's shadow,  

DLR